Location: Umburanas
(4.5000°S, 37.9667°W)
Time: 21:26:16
(UTC+00:00)

SL-16 R/B - Pass Details

Date: 19 November 2019
Orbit: 842 x 846 km, 71.0° (Epoch: 06 December)

Event Time Altitude Azimuth Distance (km) Brightness Sun altitude
Rises 20:40:58 0° 205° (SSW) 3,401 6.1 -4.1°
Reaches altitude 10° 20:43:28 10° 210° (SSW) 2,463 5.5 -4.6°
Maximum altitude 20:48:55 50° 285° (WNW) 1,060 3.2 -5.9°
Drops below altitude 10° 20:54:21 10° 359° (N) 2,452 4.4 -7.2°
Sets 20:56:52 0° 5° (N) 3,384 5.1 -7.8°
